Content
SEND FEEDBACK

Daily
Averages
Monthly
Summary
Turkmenistan

ASHGABAT, TURKMENISTAN


Home > Asia > Turkmenistan
Elevation: 236 meters     Latitude: 37 58N     Longitude: 058 20E

WEATHER
 
SELECT A DAY
Number of Records: 180,375;   Date Range: 3/15/97 - 9/29/14
 
SHARE

PRINT THIS DATA

[ ← Previous Day ]
WEATHER ALMANAC - 14 JANUARY, 2013
[ Next Day → ]
[ °F ]   °C
Weather ElementAverageHighLow
Temperature4.5 °C11.1 °C (5:00 pm)-2.2 °C (5:00 am)
Dewpoint-3.2 °C0 °C (11:00 am)-5 °C (12:00 pm)
Humidity59.8 %93 % (3:00 am)23 % (5:00 pm)
Barometer1015.6 hPa1019.3 hPa (11:00 pm)1013.2 hPa (6:00 am)
Wind Speed6.6 km/h14.3 km/h (8:00 pm)
Weather ElementAverage
Visibility10 km
Wind DirectionSSE (170.4 °)

Weather ElementTotal
Precipitation---
Heating Degree Days13.9 (Base 18.3)
Averaged from 30 records on 14 January, 2013
WEATHER CONDITIONS BREAKOUT
WIND DIRECTION BREAKOUT
WEATHER BY HOUR - 14 JANUARY, 2013
[ °F ]   °C
Local TimeTemperatureDewpointHumidityBarometerVisibilityWind DirectionWind SpeedGust SpeedPrecipitationEventsConditions
1:00 AM2 °C-2 °C75 %1014.2 hPa10 kmSE (140°)7.2 km/hMostly Cloudy
2:00 AM0 °C-2.2 °C81 %1016.3 hPa9.7 kmCalmClear
2:00 AM0 °C-2 °C87 %1014.2 hPa10 kmVariable3.5 km/hMostly Cloudy
3:00 AM-1 °C-2 °C93 %1014.2 hPa10 kmCalmMostly Cloudy
4:00 AM-1 °C-3 °C86 %1014.2 hPa10 kmSW (230°)3.5 km/hScattered Clouds
5:00 AM-2.2 °C-3.9 °C82 %1016.3 hPa9.7 kmCalmClear
5:00 AM-2 °C-4 °C86 %1014.2 hPa10 kmWNW (290°)7.2 km/hScattered Clouds
6:00 AM-2 °C-4 °C86 %1013.2 hPa10 kmCalmMostly Cloudy
7:00 AM-2 °C-4 °C86 %1014.2 hPa10 kmSW (230°)7.2 km/hMostly Cloudy
8:00 AM-2.2 °C-4.4 °C77 %1016.3 hPa9.7 kmWNW (300°)7.2 km/hScattered Clouds
8:00 AM-2 °C-4 °C86 %1014.2 hPa10 kmWNW (300°)10.8 km/hMostly Cloudy
9:00 AM-1 °C-4 °C80 %1014.2 hPa10 kmWSW (240°)7.2 km/hMostly Cloudy
10:00 AM5 °C-3 °C57 %1014.2 hPa10 kmCalmMostly Cloudy
11:00 AM8.3 °C0 °C44 %1015.6 hPa9.7 kmCalmPartly Cloudy
11:00 AM9 °C-4 °C40 %1015.2 hPa10 kmWest (280°)7.2 km/hMostly Cloudy
12:00 PM10 °C-5 °C35 %1015.2 hPa10 kmNW (310°)10.8 km/hMostly Cloudy
1:00 PM11 °C-4 °C35 %1014.2 hPa10 kmNW (310°)10.8 km/hMostly Cloudy
2:00 PM11 °C-5 °C33 %1014.2 hPa10 kmNNW (330°)10.8 km/hMostly Cloudy
3:00 PM11 °C-4 °C35 %1014.2 hPa10 kmNNE (20°)7.2 km/hMostly Cloudy
4:00 PM11 °C-5 °C33 %1014.2 hPa10 kmENE (60°)7.2 km/hMostly Cloudy
5:00 PM11.1 °C-3.3 °C23 %1015.6 hPa9.7 kmNNE (30°)10.8 km/hPartly Cloudy
5:00 PM11 °C-4 °C35 %1015.2 hPa10 kmVariable3.5 km/hMostly Cloudy
6:00 PM9 °C-3 °C43 %1016.3 hPa10 kmESE (110°)3.5 km/hMostly Cloudy
7:00 PM7 °C-3 °C49 %1016.3 hPa10 kmEast (90°)7.2 km/hMostly Cloudy
8:00 PM5 °C-2.8 °C45 %1017.9 hPa9.7 kmSouth (180°)10.8 km/hScattered Clouds
8:00 PM4 °C-2 °C65 %1017.3 hPa10 kmSSE (160°)14.3 km/hMostly Cloudy
9:00 PM5 °C-3 °C57 %1017.3 hPa10 kmVariable3.5 km/hScattered Clouds
10:00 PM6 °C-2 °C57 %1017.3 hPa10 kmWNW (290°)7.2 km/hMostly Cloudy
11:00 PM7.2 °C-1.7 °C41 %1019.3 hPa9.7 kmNorth (350°)14.3 km/hPartly Cloudy
11:00 PM7 °C0 °C61 %1019 hPa10 kmNorth (350°)14.3 km/hMostly Cloudy
Hourly data recorded from UTAA, located 0 kilometers away from Ashgabat, Turkmenistan







STORIES FROM OUR PARTNERS